Regional Weather Roundup
Issued by NWS Northern Indiana

Home | Current Version | Previous Version | Text Only | Print | Product List | Glossary Off
Versions: 1 2 3 4 5 6 7 8 9 10 11 12 13 14 15 16 17 18 19 20 21 22 23 24 25 26 27 28 29 30 31 32 33 34 35 36 37 38 39 40 41 42 43 44 45 46 47 48 49 50

000
ASUS43 KIWX 281210
RWRIWX

KIWX WEATHER ROUNDUP
NATIONAL WEATHER SERVICE NORTHERN INDIANA
800 AM EDT THU MAY 28 2015

NOTE: "FAIR" INDICATES FEW OR NO CLOUDS BELOW 12,000 FEET WITH NO
SIGNIFICANT WEATHER AND/OR OBSTRUCTIONS TO VISIBILITY.

* THESE STATIONS ARE NOT UNDER NWS QUALITY CONTROL. THEY ALSO MAY NOT
  REPORT WEATHER SUCH AS PRECIPITATION OR FOG.

INZ001>027-281300-
NORTHERN INDIANA

CITY           SKY/WX    TMP DP  RH WIND       PRES   REMARKS
GARY*          MOSUNNY   61  57  88 CALM      30.22R
VALPARAISO     SUNNY     58  55  90 SW6       30.23R
6HR MIN TEMP:  51; 6HR MAX TEMP:  58;

MICHIGAN CITY* SUNNY     55  55 100 CALM      30.22R
LAPORTE*       SUNNY    N/A N/A N/A CALM      30.23R
6HR MIN TEMP:  52; 6HR MAX TEMP:  58;

KNOX*          SUNNY     55  55 100 SW3       30.22R
SOUTH BEND     SUNNY     59  56  89 E5        30.22S
6HR MIN TEMP:  52; 6HR MAX TEMP:  59;

ELKHART*       SUNNY     57  57 100 CALM      30.22S FOG
GOSHEN         SUNNY     60  57  89 E5        30.21F FOG
6HR MIN TEMP:  50; 6HR MAX TEMP:  58;

MONTICELLO*    SUNNY     60  57  88 NE3       30.20R
6HR MIN TEMP:  52; 6HR MAX TEMP:  60;

LOGANSPORT*    SUNNY     61  54  77 NE5       30.22R
ROCHESTER*     SUNNY     61  61 100 CALM      30.23S
WARSAW*        SUNNY     55  55 100 CALM      30.21S FOG
ANGOLA*        SUNNY     57  57 100 CALM      30.22S
FORT WAYNE     MOSUNNY   60  57  89 E6        30.23R
6HR MIN TEMP:  53; 6HR MAX TEMP:  60;

HUNTINGTON*    SUNNY     58  57  97 CALM      30.22R
6HR MIN TEMP:  51; 6HR MAX TEMP:  58;

PERU/GRISSOM   SUNNY     60  58  93 NE5       30.21R
6HR MIN TEMP:  52; 6HR MAX TEMP:  60;

MARION*        SUNNY     59  56  87 NE7       30.22S
6HR MIN TEMP:  29; 6HR MAX TEMP:  86;


$$
INZ028>050-281300-
CENTRAL INDIANA

CITY           SKY/WX    TMP DP  RH WIND       PRES   REMARKS
LAFAYETTE      SUNNY     60  57  89 CALM      30.20R FOG
6HR MIN TEMP:  51; 6HR MAX TEMP:  60;

KOKOMO*        SUNNY     59  55  88 E5        30.22R
6HR MIN TEMP:  54; 6HR MAX TEMP:  59;

MUNCIE*        SUNNY     62  57  83 E6        30.21S
6HR MIN TEMP:  56; 6HR MAX TEMP:  65;

INDIANAPOLIS   MOSUNNY   64  56  75 NE9       30.19R
6HR MIN TEMP:  60; 6HR MAX TEMP:  66;


$$
MIZ043>046-050>051-056>058-064>065-071>073-077>080-281300-
SOUTHWEST LOWER MICHIGAN

CITY           SKY/WX    TMP DP  RH WIND       PRES   REMARKS
BATTLE CREEK   SUNNY     59  56  89 S3        30.24R
6HR MIN TEMP:  53; 6HR MAX TEMP:  60;

BENTON HARBOR  SUNNY     58  55  90 CALM      30.20S
6HR MIN TEMP:  49; 6HR MAX TEMP:  58;

COLDWATER*     SUNNY     56  56  99 CALM      30.24R FOG
6HR MIN TEMP:  48; 6HR MAX TEMP:  56;

HILLSDALE*     SUNNY     58  58 100 CALM      30.24R
6HR MIN TEMP:  51; 6HR MAX TEMP:  58;

HOLLAND        SUNNY     59  55  87 E3        30.21S
6HR MIN TEMP:  52; 6HR MAX TEMP:  59;

GRAND RAPIDS   MOSUNNY   57  56  96 S5        30.22R
6HR MIN TEMP:  52; 6HR MAX TEMP:  57;

KALAMAZOO      SUNNY     59  57  93 S3        30.23R
6HR MIN TEMP:  50; 6HR MAX TEMP:  59;

STURGIS*       SUNNY     57  57 100 CALM      30.22S FOG
THREE RIVERS*  FAIR      58  58  99 S3        30.23S FOG
6HR MIN TEMP:  52; 6HR MAX TEMP:  58;


$$
OHZ001>008-015>018-024>025-281300-
NORTHWEST OHIO

CITY           SKY/WX    TMP DP  RH WIND       PRES   REMARKS
WAUSEON*       FAIR      61  61 100 NE7       30.23R
DEFIANCE       SUNNY     61  57  87 CALM      30.23R
6HR MIN TEMP:  56; 6HR MAX TEMP:  61;

FINDLAY        SUNNY     65  59  81 NE7       30.22R
6HR MIN TEMP:  60; 6HR MAX TEMP:  65;

TOLEDO EXPRESS SUNNY     61  57  87 N5        30.22R
6HR MIN TEMP:  54; 6HR MAX TEMP:  61;

TOLEDO METCALF SUNNY     64  58  80 CALM      30.23R
6HR MIN TEMP:  56; 6HR MAX TEMP:  64;

LIMA           SUNNY     62  59  90 NE5       30.23R
6HR MIN TEMP:  58; 6HR MAX TEMP:  65;


$$
AND FOR LAKE MICHIGAN COASTAL AND OPEN LAKE BUOY OBSERVATIONS

STATION/POSITION TEMP    WIND        PRES    VSBY  WAVE
                 AIR SEA DIR/SP/G                  HT/PER
                 (F)     (DEG/KT/KT) (MB)    (MI)  (FT/S)
CALUMET HARBOR    61     200/  7/ 10   N/A
MICHIGAN CITY     61     120/  9/  9   N/A
BURNS HARBOR      60     190/  7/  8 1023.4S
SAINT JOSEPH      61     100/  1/  4 1023.4S
SOUTH LAKE BUOY   44 38  180/  8/  8 1022.7R         0
4 MI NW BRIDGMAN  58 56  170/  4/  6   N/A           0
MICHIGAN CITY     56 53  210/  4/  6   N/A           0

$$
&&



USA.gov is the U.S. government's official web portal to all federal, state and local government web resources and services.